Change the Weather History Date:

Monday, December 26, 2011

  Actual Average Record
Temperature  
Mean Temperature 24 °F -  
Max Temperature 35 °F 41 °F 64 °F (2008)
Min Temperature 14 °F 20 °F -5 °F (1962)
Degree Days  
Heating Degree Days 40    
Moisture  
Dew Point 21 °F    
Average Humidity 82    
Maximum Humidity 93    
Minimum Humidity 64    
Precipitation  
Precipitation 0.00 in - - ()
Sea Level Pressure  
Sea Level Pressure 30.12 in    
Wind  
Wind Speed 10 mph (SW)    
Max Wind Speed 17 mph    
Max Gust Speed -    
Visibility 10 miles    
Events      
Averages and records for this station are not official NWS values.
T = Trace of Precipitation, MM = Missing Value Source: NWS Daily Summary

Daily Weather History Graph

Daily Weather History Graph

Search for Another Location

Airport or City:

Trip Planner

Search our weather history database for the weather conditions in past years. The results will help you decide how hot, cold, wet, or windy it might be!

Date:

Astronomy

Dec. 26, 2011 Rise Set
Actual Time 7:52 AM CST 5:19 PM CST
Civil Twilight 7:22 AM CST 5:49 PM CST
Nautical Twilight 6:48 AM CST 6:22 PM CST
Astronomical Twilight 6:16 AM CST 6:55 PM CST
Moon 9:14 AM CST (12/26) 7:47 PM CST (12/26)
Length of Visible Light 10h 27m
Length of Day
9h 27m
Waxing Crescent, 5% of the Moon is Illuminated
Dec 26
Waxing Crescent
Jan 1
First Quarter
Jan 9
Full
Jan 16
Last Quarter
Jan 23
New

Hourly Weather History & Observations

Time (CST) Temp. Windchill Dew Point Humidity Pressure Visibility Wind Dir Wind Speed Gust Speed Precip Events Conditions
12:53 AM 19.0 °F 10.0 °F 17.1 °F 92% 30.33 in 10.0 mi SW 6.9 mph - N/A   Clear
1:53 AM 15.1 °F 2.5 °F 12.9 °F 91% 30.30 in 10.0 mi SSW 10.4 mph - N/A   Clear
2:53 AM 14.0 °F 1.2 °F 12.0 °F 92% 30.27 in 10.0 mi SW 10.4 mph - N/A   Clear
3:53 AM 16.0 °F 3.6 °F 12.9 °F 88% 30.25 in 10.0 mi SSW 10.4 mph - N/A   Clear
4:53 AM 16.0 °F 5.3 °F 14.0 °F 92% 30.21 in 10.0 mi SSW 8.1 mph - N/A   Scattered Clouds
5:53 AM 21.2 °F 10.1 °F 17.6 °F 86% 30.12 in 10.0 mi South 10.4 mph - N/A   Mostly Cloudy
6:53 AM 19.0 °F 10.0 °F 17.1 °F 92% 30.20 in 10.0 mi SW 6.9 mph - N/A   Clear
7:53 AM 19.9 °F 10.1 °F 17.1 °F 89% 30.18 in 10.0 mi SW 8.1 mph - N/A   Partly Cloudy
8:53 AM 21.2 °F 8.9 °F 19.4 °F 93% 30.09 in 10.0 mi South 12.7 mph - N/A   Partly Cloudy
9:53 AM 30.0 °F 19.1 °F 26.1 °F 85% 30.14 in 10.0 mi South 15.0 mph - N/A   Overcast
10:53 AM 34.0 °F 24.6 °F 28.0 °F 79% 30.14 in 10.0 mi SSW 13.8 mph - N/A   Clear
11:53 AM 35.1 °F 25.2 °F 30.0 °F 82% 30.10 in 10.0 mi SSW 16.1 mph - N/A   Clear
12:53 PM 35.1 °F 26.9 °F 28.9 °F 78% 30.08 in 10.0 mi WSW 11.5 mph - N/A   Clear
1:53 PM 32.0 °F 22.5 °F 24.1 °F 73% 30.06 in 10.0 mi SW 12.7 mph - N/A   Clear
2:53 PM 33.1 °F 23.0 °F 25.0 °F 72% 30.01 in 10.0 mi SSW 15.0 mph - N/A   Clear
3:53 PM 33.1 °F 23.9 °F 25.0 °F 72% 29.99 in 10.0 mi SSW 12.7 mph - N/A   Clear
4:53 PM 32.0 °F 22.5 °F 25.0 °F 75% 30.01 in 10.0 mi SW 12.7 mph - N/A   Clear
5:53 PM 28.9 °F 19.8 °F 23.0 °F 78% 30.02 in 10.0 mi WSW 10.4 mph - N/A   Clear
6:53 PM 27.0 °F 17.3 °F 21.9 °F 81% 30.05 in 10.0 mi WSW 10.4 mph - N/A   Clear
7:53 PM 23.0 °F 14.7 °F 19.9 °F 88% 30.06 in 10.0 mi West 6.9 mph - N/A   Clear
8:53 PM 24.1 °F 16.0 °F 19.9 °F 84% 30.07 in 10.0 mi WNW 6.9 mph - N/A   Clear
9:53 PM 26.1 °F 16.8 °F 21.0 °F 81% 30.08 in 10.0 mi WNW 9.2 mph - N/A   Clear
10:53 PM 32.0 °F 20.8 °F 21.0 °F 64% 30.10 in 10.0 mi NW 17.3 mph - N/A   Clear
11:53 PM 28.9 °F 18.6 °F 19.0 °F 67% 30.11 in 10.0 mi NW 12.7 mph - N/A   Clear